Stations météo

réclame
Mon MeteoGroup
San Sebastian/Fuenterrabia, Espagne (8029): Température de l'air & dewpoint: 17.10.2018 08:00:00 - 23.10.2018 08:00:00 (CEST)San Sebastian/Fuenterrabia, Espagne (8029): Vitesse du vent: 17.10.2018 08:00:00 - 23.10.2018 08:00:00 (CEST)San Sebastian/Fuenterrabia, Espagne (8029): Direction du vent: 17.10.2018 08:00:00 - 23.10.2018 08:00:00 (CEST)San Sebastian/Fuenterrabia, Espagne (8029): reduced air pressure: 17.10.2018 08:00:00 - 23.10.2018 08:00:00 (CEST)San Sebastian/Fuenterrabia, Espagne (8029): visibility: 17.10.2018 08:00:00 - 23.10.2018 08:00:00 (CEST)
Date & Time tt [°C] td [°C] ff [km/h] ff [knt] dd ppp [hPa] vv [km]
23.10.2018 08:00:00 - - - - - - -
23.10.2018 07:00:00 11,0 10,0 4 2 - - 10
23.10.2018 06:00:00 11,0 10,0 4 2 - - 10
23.10.2018 05:00:00 12,0 11,0 2 1 - - 10
23.10.2018 04:00:00 13,0 11,0 4 2 - - 10
23.10.2018 03:00:00 12,0 11,0 8 4 S - 10
23.10.2018 02:00:00 13,0 11,0 5 3 S - 10
23.10.2018 01:00:00 13,0 11,0 8 4 S - 10
23.10.2018 00:00:00 13,0 11,0 9 5 S - 10
22.10.2018 23:00:00 14,0 11,0 9 5 WSW - 10
22.10.2018 22:00:00 14,0 11,0 11 6 SW - 10
22.10.2018 21:00:00 14,0 11,0 9 5 SW - 10
22.10.2018 20:00:00 15,0 10,4 9 5 SW 1029,0 10
22.10.2018 19:00:00 15,0 11,0 8 4 WSW - 10
22.10.2018 18:00:00 16,0 11,0 8 4 WNW - 10
22.10.2018 17:00:00 17,3 10,7 9 5 NW 1027,5 10
22.10.2018 16:00:00 17,0 11,0 11 6 WNW - 10
22.10.2018 15:00:00 17,0 12,0 11 6 WNW - 10
22.10.2018 14:00:00 18,6 11,9 13 7 W 1027,5 10
22.10.2018 13:00:00 17,0 12,0 11 6 NW - 10
22.10.2018 12:00:00 17,0 13,0 9 5 NW - 10
22.10.2018 11:00:00 17,3 13,2 9 5 W 1026,7 9
22.10.2018 10:00:00 17,0 14,0 8 4 WNW - 9
22.10.2018 09:00:00 17,0 15,0 11 6 WNW - 6
22.10.2018 08:00:00 17,1 14,4 13 7 WSW 1025,0 8
22.10.2018 07:00:00 17,0 14,0 13 7 SW - 8
22.10.2018 06:00:00 16,0 14,0 9 5 SW - 7
22.10.2018 05:00:00 16,0 14,0 9 5 SW - 8
22.10.2018 04:00:00 17,0 14,0 5 3 WNW - 9
22.10.2018 03:00:00 16,0 15,0 5 3 WNW - 7
22.10.2018 02:00:00 16,0 15,0 5 3 WSW - 7
22.10.2018 01:00:00 16,0 15,0 5 3 WSW - 4,4
22.10.2018 00:00:00 16,0 15,0 5 3 WSW - 7
21.10.2018 23:00:00 16,0 15,0 8 4 WNW - 3,6
21.10.2018 22:00:00 15,0 15,0 5 3 NW - 2,4
21.10.2018 21:00:00 16,0 15,0 5 3 WNW - 0,8
21.10.2018 20:00:00 15,6 15,3 0 0 N 1022,8 1,0
21.10.2018 19:00:00 16,0 15,0 4 2 - - 0,9
21.10.2018 18:00:00 16,0 16,0 9 5 NE - 0,8
21.10.2018 17:00:00 16,8 15,5 9 5 NNE 1022,3 0,6
21.10.2018 16:00:00 17,0 16,0 13 7 NNE - 2,0
21.10.2018 15:00:00 17,0 16,0 9 5 N - 10
21.10.2018 14:00:00 16,6 14,8 11 6 N 1023,2 1,0
21.10.2018 13:00:00 17,0 15,0 9 5 N - 10
21.10.2018 12:00:00 17,0 15,0 4 2 - - 10
21.10.2018 11:00:00 14,9 14,7 2 1 - 1024,5 1,0
21.10.2018 10:00:00 14,0 14,0 5 3 SSW - 0,4
21.10.2018 09:00:00 15,0 14,0 0 0 N - 1,0
21.10.2018 08:00:00 14,9 14,7 2 1 - 1023,8 1,0
21.10.2018 07:00:00 15,0 15,0 9 5 S - 3,0
21.10.2018 06:00:00 16,0 15,0 4 2 - - 3,5
21.10.2018 05:00:00 16,0 15,0 5 3 SSE - 2,8
21.10.2018 04:00:00 16,0 15,0 2 1 - - 3,6
21.10.2018 03:00:00 16,0 15,0 4 2 - - 2,8
21.10.2018 02:00:00 15,0 15,0 2 1 S - 2,6
21.10.2018 01:00:00 16,0 15,0 5 3 SSW - 2,7
21.10.2018 00:00:00 17,0 16,0 2 1 - - 3,3
20.10.2018 23:00:00 17,0 16,0 2 1 - - 4,1
20.10.2018 22:00:00 16,0 16,0 0 0 N - 3,5
20.10.2018 21:00:00 16,0 15,0 4 2 - - 3,5
20.10.2018 20:00:00 17,4 15,7 2 1 WNW 1024,2 4,0
20.10.2018 19:00:00 18,0 16,0 0 0 N - 5
20.10.2018 18:00:00 18,0 16,0 5 3 NNE - 7
20.10.2018 17:00:00 18,2 16,2 11 6 NE 1024,7 7
20.10.2018 16:00:00 19,0 16,0 8 4 W - 8
20.10.2018 15:00:00 19,0 16,0 5 3 WNW - 9
20.10.2018 14:00:00 19,0 15,3 9 5 SW 1025,3 8
20.10.2018 13:00:00 19,0 16,0 5 3 SSW - 8
20.10.2018 12:00:00 18,0 15,0 9 5 WSW - 9
20.10.2018 11:00:00 17,6 14,9 8 4 SW 1025,0 8
20.10.2018 10:00:00 17,0 15,0 4 2 - - 8
20.10.2018 09:00:00 17,0 14,0 8 4 S - 8
20.10.2018 08:00:00 16,4 14,2 5 3 SW 1022,9 8
20.10.2018 07:00:00 17,0 14,0 8 4 WSW - 8
20.10.2018 06:00:00 16,0 15,0 9 5 SW - 8
20.10.2018 05:00:00 16,0 14,0 8 4 SW - 8
20.10.2018 04:00:00 16,0 15,0 5 3 WSW - 8
20.10.2018 03:00:00 16,0 15,0 8 4 WSW - 7
20.10.2018 02:00:00 16,0 15,0 5 3 WSW - 7
20.10.2018 01:00:00 16,0 15,0 8 4 WSW - 7
20.10.2018 00:00:00 16,0 15,0 5 3 WSW - 7
19.10.2018 23:00:00 16,0 15,0 5 3 WSW - 7
19.10.2018 22:00:00 17,0 15,0 8 4 SW - 8
19.10.2018 21:00:00 17,0 15,0 5 3 W - 10
19.10.2018 20:00:00 17,1 15,1 5 3 W 1020,5 10
19.10.2018 19:00:00 18,0 16,0 8 4 WSW - 9
19.10.2018 18:00:00 19,0 16,0 11 6 WNW - 10
19.10.2018 17:00:00 20,1 15,5 13 7 WNW 1019,0 10
19.10.2018 16:00:00 20,0 16,0 15 8 WNW - 10
19.10.2018 15:00:00 20,0 16,0 15 8 WNW - 9
19.10.2018 14:00:00 20,4 16,6 15 8 WNW 1019,3 9
19.10.2018 13:00:00 20,0 17,0 8 4 WNW - 9
19.10.2018 12:00:00 20,0 16,0 5 3 WNW - 8
19.10.2018 11:00:00 18,8 16,4 0 0 N 1019,2 8
19.10.2018 10:00:00 18,0 16,0 2 1 - - 7
19.10.2018 09:00:00 17,0 16,0 0 0 N - 8
19.10.2018 08:00:00 17,4 16,1 0 0 N 1017,4 7
19.10.2018 07:00:00 17,0 16,0 2 1 - - 7
19.10.2018 06:00:00 18,0 16,0 0 0 N - 7
19.10.2018 05:00:00 17,0 16,0 4 2 - - 7
19.10.2018 04:00:00 17,0 16,0 0 0 N - 7
19.10.2018 03:00:00 18,0 16,0 2 1 - - 8
19.10.2018 02:00:00 18,0 16,0 5 3 WNW - 9
19.10.2018 01:00:00 18,0 16,0 0 0 N - 8
19.10.2018 00:00:00 18,0 16,0 0 0 N - 7
18.10.2018 23:00:00 17,0 16,0 5 3 SW - 7
18.10.2018 22:00:00 17,0 16,0 2 1 - - 8
18.10.2018 21:00:00 18,0 16,0 2 1 - - 7
18.10.2018 20:00:00 18,0 16,2 2 1 - 1016,2 7
18.10.2018 19:00:00 18,0 16,0 4 2 - - 8
18.10.2018 18:00:00 19,0 16,0 5 3 WNW - 10
18.10.2018 17:00:00 19,1 15,6 5 3 NW 1015,2 7
18.10.2018 16:00:00 19,0 16,0 8 4 NNW - 8
18.10.2018 15:00:00 19,0 16,0 5 3 NNE - 6
18.10.2018 14:00:00 18,4 15,3 8 4 NNE 1015,8 6
18.10.2018 13:00:00 18,0 16,0 8 4 NE - 6
18.10.2018 12:00:00 17,0 15,0 4 2 - - 9
18.10.2018 11:00:00 15,6 13,8 0 0 N 1016,3 9
18.10.2018 10:00:00 16,0 14,0 0 0 N - 9
18.10.2018 09:00:00 15,0 14,0 4 2 - - 9
18.10.2018 08:00:00 14,4 13,3 4 2 SSW 1015,2 12
18.10.2018 07:00:00 14,0 13,0 2 1 - - 10
18.10.2018 06:00:00 14,0 13,0 5 3 SW - 10
18.10.2018 05:00:00 13,0 13,0 5 3 WSW - 10
18.10.2018 04:00:00 13,0 12,0 4 2 - - 6
18.10.2018 03:00:00 14,0 13,0 0 0 N - 7
18.10.2018 02:00:00 14,0 13,0 4 2 - - 9
18.10.2018 01:00:00 14,0 14,0 5 3 S - 10
18.10.2018 00:00:00 14,0 14,0 5 3 S - 10
17.10.2018 23:00:00 15,0 14,0 8 4 S - 9
17.10.2018 22:00:00 15,0 14,0 4 2 S - 10
17.10.2018 21:00:00 16,0 15,0 5 3 S - 10
17.10.2018 20:00:00 17,0 15,7 0 0 N 1014,4 10
17.10.2018 19:00:00 17,0 15,0 9 5 ENE - 10
17.10.2018 18:00:00 18,0 15,0 9 5 NNE - 10
17.10.2018 17:00:00 18,2 14,9 11 6 NNE 1014,9 20
17.10.2018 16:00:00 18,0 15,0 11 6 NNE - 10
17.10.2018 15:00:00 18,0 15,0 13 7 NNE - 10
17.10.2018 14:00:00 18,6 14,9 9 5 NNE 1016,4 10
17.10.2018 13:00:00 18,0 15,0 8 4 N - 10
17.10.2018 12:00:00 19,0 14,0 4 2 - - 10
17.10.2018 11:00:00 16,8 14,4 0 0 N 1018,4 10
17.10.2018 10:00:00 16,0 14,0 2 1 - - 10
17.10.2018 09:00:00 15,0 14,0 4 2 SSW - 10
17.10.2018 08:00:00 15,1 14,0 4 2 S 1018,6 10

tt = Température de l'air
td = dewpoint
ff = Vitesse du vent
dd = Direction du vent
ppp = reduced air pressure
vv = visibility

stations d'obs. à proximité